Regional Weather Roundup
Issued by NWS

Home | Current Version | Previous Version | Text Only | Print | Product List | Glossary On
Versions: 1 2 3 4 5 6 7 8 9 10 11 12 13 14 15 16 17 18 19 20 21 22 23 24 25 26 27 28 29 30 31 32 33 34 35 36 37 38 39 40 41 42 43 44 45 46 47 48 49 50
000
ASUS45 KREV 252010
RWRNV
NEVADA REGIONAL WEATHER ROUNDUP
NATIONAL WEATHER SERVICE RENO NV
100 PM PDT SAT APR 25 2015

NOTE: "FAIR" INDICATES FEW OR NO CLOUDS BELOW 12,000 FEET WITH NO
SIGNIFICANT WEATHER AND/OR OBSTRUCTIONS TO VISIBILITY.

NVZ001-003-004-252100-
WESTERN NEVADA

CITY           SKY/WX    TMP DP  RH WIND       PRES   REMARKS
RENO           PTSUNNY   51  32  48 N13       29.87S
CARSON CITY    PTSUNNY   46  36  66 N13G22    29.87S
MINDEN         CLOUDY    48  32  53 NW12G24   29.87
PYRAMID LAKE     N/A     48 N/A N/A N16         N/A
FALLON         PTSUNNY   49  37  63 N12G20    29.85F
LOVELOCK       PTSUNNY   49  39  68 NW13      29.85F
HAWTHORNE      MOSUNNY   52  37  58 N26G32    29.82S
$$

NVZ002-CAZ072-073-252100-
NORTHERN AND CENTRAL SIERRA

CITY           SKY/WX    TMP DP  RH WIND       PRES   REMARKS
S. LAKE TAHOE  PTSUNNY   42  29  59 S10       29.87S
TRUCKEE        LGT RAIN  37  34  87 N8        29.89S FOG
SQUAW VLY 8000   N/A     32  32 100 SW3         N/A
BLUE CANYON    CLOUDY    40  36  86 MISG      29.92S
MAMMOTH LAKES  CLOUDY    45  18  33 W18G30    29.86S
BRIDGEPORT     PTSUNNY   43  29  57 SW14G23   29.82F
$$

NVZ030-031-036-252100-
NORTHERN NEVADA

CITY           SKY/WX    TMP DP  RH WIND       PRES   REMARKS
ELKO           CLOUDY    42  36  79 W15       29.74F
WINNEMUCCA     LGT RAIN  38  37  97 W9        29.85S
WENDOVER       CLOUDY    54  32  43 NE5       29.71F
$$

NVZ035-037-252100-
CENTRAL NEVADA

CITY           SKY/WX    TMP DP  RH WIND       PRES   REMARKS
ELY            LGT RAIN  38  36  92 W15G26    29.73R
EUREKA           N/A     45  33  63 W9        29.73F
$$

NVZ013-014-252100-
SOUTH CENTRAL NEVADA

CITY           SKY/WX    TMP DP  RH WIND       PRES   REMARKS
TONOPAH        LGT RAIN  39  33  79 NW18G31   29.80R
$$

NVZ017-020-022-252100-
SOUTHERN NEVADA

CITY           SKY/WX    TMP DP  RH WIND       PRES   REMARKS
LAS VEGAS      CLOUDY    67  30  25 S21G29    29.68F
N. LAS VEGAS   CLOUDY    66  28  24 S18       29.69F
NELLIS AFB     CLOUDY    66  32  27 SW18      29.70F
HENDERSON      CLOUDY    65  33  30 SW24G30   29.74F
MERCURY        PTSUNNY   63  28  26 SW15G29   29.70F
$$


USA.gov is the U.S. government's official web portal to all federal, state and local government web resources and services.